Location: Izdebno
(52.6670°N, 16.2170°E)
Time: 23:25:53
(UTC+02:00)

Vanguard 2 Rocket - Pass Details

Date: 25 February 2024
Orbit: 555 x 3307 km, 32.9° (Epoch: 21 April)

Event Time Altitude Azimuth Distance (km) Brightness Sun altitude
Rises 21:16:13 0° 266° (W) 6,572 11.9 -34.3°
Reaches altitude 10° 21:25:05 10° 241° (WSW) 6,026 11.3 -35.3°
Maximum altitude 21:30:48 12° 224° (SW) 6,012 11.1 -36.0°
Drops below altitude 10° 21:36:44 10° 206° (SSW) 6,259 11.0 -36.7°
Enters shadow 21:43:39 - 188° (S) 6,811 11.1 -37.5°
Sets 21:46:44 0° 181° (S) 7,126 - -37.8°
